Theta_e
316 316 317 318 315 313 312 311 313 313 313 313 317 314 314 312 312 312 311 311 310 311
315 313 316 316 315 312 314 317 313 314 313 313 316 314 313 311 310 311 312 311 311 313
311 314 314 315 315 313 312 314 313 314 315 313 315 313 312 310 310 311 310 312 313 313
312 313 312 312 314 314 313 312 313 313 315 316 314 315 312 311 312 314 313 313 312 312
311 311 310 312 312 312 312 312 313 314 315 314 314 314 312 310 315 312 312 313 310 312
307 310 311 311 313 314 312 311 313 314 315 315 314 316 315 312 313 313 314 313 311 310
306 310 311 311 314 313 311 308 310 313 314 315 314 315 314 310 313 310 312 314 313 311
308 310 311 312 314 314 313 312 313 312 313 315 314 315 312 310 313 313 311 311 314 311
308 311 309 310 311 313 312 312 313 314 314 313 314 312 311 312 309 311 313 313 309 312
308 308 309 310 310 312 311 312 313 311 313 310 311 306 308 311 309 309 308 312 311 311
307 307 309 308 308 309 310 311 312 311 311 310 313 304 305 307 308 309 309 311 311 310
305 305 307 307 308 309 309 310 311 313 311 313 310 305 303 304 305 308 309 310 314 313
306 305 305 306 307 309 311 310 312 313 312 313 309 303 301 302 304 305 308 311 311 311
304 303 304 305 307 308 310 311 311 313 312 312 312 306 300 300 305 305 310 307 311 308
Wind_Speed
5 4 6 7 5 5 3 4 4 4 6 6 4 4 4 2 3 6 5 7 6 4
6 6 7 6 4 5 5 3 5 5 5 5 4 4 5 3 4 5 4 6 6 5
1 5 6 6 7 7 6 4 5 6 6 6 6 3 4 3 4 5 5 4 6 5
3 3 6 6 7 7 6 6 6 6 6 6 6 6 5 4 6 6 5 4 4 6
4 4 5 6 7 7 8 6 6 6 5 6 5 6 5 4 3 3 4 5 2 4
6 4 6 6 8 7 6 5 5 3 4 7 6 8 4 5 4 1 3 4 2 3
6 7 6 7 8 5 5 4 4 3 3 8 6 6 4 6 3 1 3 5 1 4
7 7 7 7 6 5 5 3 5 4 4 8 6 4 6 5 5 3 3 4 2 3
6 7 7 7 6 5 4 4 5 5 6 8 6 7 10 8 5 5 3 3 2 4
5 6 6 7 6 6 5 5 7 5 5 6 7 6 9 11 5 4 2 2 2 1
6 6 7 7 6 4 3 6 6 6 6 5 5 9 9 8 4 3 2 3 4 1
12 7 7 6 8 5 2 3 5 7 6 4 5 12 10 7 4 3 5 4 4 5
7 8 7 6 7 6 4 4 7 5 6 7 7 11 11 9 4 3 4 3 3 6
10 7 6 6 4 7 4 6 7 5 5 2 1 6 8 8 4 3 3 3 2 3
Wind_Direction
169 215 222 242 265 251 223 224 241 243 241 249 265 247 220 240 261 258 251 253 245 246
229 233 240 260 267 256 259 248 264 273 252 272 275 244 215 243 287 285 267 261 256 244
339 249 240 251 252 245 247 258 276 271 267 262 271 259 226 246 280 272 281 266 270 272
291 316 294 262 254 241 244 244 250 261 264 269 265 255 241 224 257 278 294 295 267 294
296 307 295 283 270 242 228 231 245 246 261 265 272 260 240 238 227 297 291 308 353 324
323 298 287 290 279 251 231 216 238 254 291 274 256 249 224 198 202 264 306 354 29 342
310 300 303 292 299 246 248 242 266 228 316 288 256 254 201 187 133 354 3 341 231 50
316 313 322 303 293 269 252 244 241 248 286 264 264 236 193 182 142 179 55 337 325 89
331 340 325 317 322 298 294 281 307 270 245 265 236 261 190 148 155 159 187 244 322 108
336 333 331 326 337 352 342 342 303 253 211 235 231 203 172 147 163 165 170 144 142 57
330 352 330 329 315 322 354 317 313 306 248 213 222 181 183 170 168 178 212 220 188 182
347 328 325 326 327 288 224 277 305 316 303 267 243 188 187 167 169 213 241 200 221 213
323 344 315 330 324 300 273 234 268 278 286 246 200 191 193 173 164 197 244 285 45 189
339 322 326 322 313 325 333 31 334 319 331 301 32 174 187 198 180 174 224 201 207 192